Regional Weather Roundup
Issued by NWS Burlington, VT

Home | Current Version | Previous Version | Text Only | Print | Product List | Glossary On
Versions: 1 2 3 4 5 6 7 8 9 10 11 12 13 14 15 16 17 18 19 20 21 22 23 24 25 26 27 28 29 30 31 32 33 34 35 36 37 38 39 40 41 42 43 44 45 46 47 48 49 50
000
ASUS41 KBTV 170610
RWRBTV
VERMONT REGIONAL WEATHER ROUNDUP
NATIONAL WEATHER SERVICE BURLINGTON VT
200 AM EDT THU AUG 17 2017

NOTE: "FAIR" INDICATES FEW OR NO CLOUDS BELOW 12,000 FEET WITH NO
SIGNIFICANT WEATHER AND/OR OBSTRUCTIONS TO VISIBILITY.

* THESE REPORTS ARE NOT UNDER NWS QUALITY CONTROL AND/OR DO NOT
  REPORT WEATHER SUCH AS PRECIPITATION AND FOG.

VTZ001>019-170700-
_____VERMONT_____


CITY           SKY/WX    TMP DP  RH WIND       PRES   REMARKS
BURLINGTON     CLEAR     54  52  93 E3        30.05F
6HR MIN TEMP:  54; 6HR MAX TEMP:  68;

MONTPELIER     CLEAR     50  47  89 E5        30.10S
6HR MIN TEMP:  48; 6HR MAX TEMP:  61;

MORRISVILLE    CLEAR     45  45 100 S3        30.07F
6HR MIN TEMP:  45; 6HR MAX TEMP:  58;

ST. JOHNSBURY*   N/A     49  49 100 MISG      30.04S
6HR MIN TEMP:  49; 6HR MAX TEMP:  63;

LYNDONVILLE*   FAIR      48  46  95 CALM      30.07S
6HR MIN TEMP:  47; 6HR MAX TEMP:  60;

MIDDLEBURY*    FAIR      51  47  88 CALM      30.06S
6HR MIN TEMP:  51; 6HR MAX TEMP:  65;

RUTLAND*       CLEAR     52  49  89 SE7       30.08S
6HR MIN TEMP:  51; 6HR MAX TEMP:  65;

SPRINGFIELD    CLEAR     50  48  93 CALM      30.08R
6HR MIN TEMP:  50; 6HR MAX TEMP:  66;

HIGHGATE*      FAIR      50  50  97 CALM      30.04F
6HR MIN TEMP:  50; 6HR MAX TEMP:  63;

NEWPORT*       FAIR      50  46  87 CALM      30.05S
6HR MIN TEMP:  50; 6HR MAX TEMP:  59;

BENNINGTON     CLEAR     51  50  96 CALM      30.07S
6HR MIN TEMP:  51; 6HR MAX TEMP:  67; 6HR PCP: TRACE;


_____LAKE CHAMPLAIN_____


CITY           SKY/WX    TMP DP  RH WIND       PRES   REMARKS
BURTON ISLAND*   N/A     64  55  72 S8          N/A
COLCHESTER RF*   N/A     64  52  63 W3          N/A

$$

NYZ007-026>031-035-052-083-087-170700-
_____NORTHERN NEW YORK_____


CITY           SKY/WX    TMP DP  RH WIND       PRES   REMARKS
PLATTSBURGH    CLEAR     53  48  83 CALM      30.04S
6HR MIN TEMP:  50; 6HR MAX TEMP:  64;

SARANAC LAKE   CLEAR     40  40 100 CALM      30.09F
6HR MIN TEMP:  40; 6HR MAX TEMP:  57;

MASSENA        CLEAR     53  52  96 SW5       30.07S
6HR MIN TEMP:  53; 6HR MAX TEMP:  64;

OGDENSBURG*    FAIR      52  51  97 CALM      30.07F
6HR MIN TEMP:  52; 6HR MAX TEMP:  62;

POTSDAM*       CLEAR     52  52 100 SW3       30.07F
WATERTOWN      CLEAR     50  50 100 CALM      30.08S
6HR MIN TEMP:  50; 6HR MAX TEMP:  63;

FT DRUM        CLEAR     54  51  90 CALM      30.08S
6HR MIN TEMP:  52; 6HR MAX TEMP:  63; 6HR PCP: TRACE;

ALBANY         CLEAR     60  54  80 CALM      30.07R
6HR MIN TEMP:  58; 6HR MAX TEMP:  74;

GLENS FALLS    CLEAR     50  48  93 CALM      30.06S FOG
6HR MIN TEMP:  49; 6HR MAX TEMP:  69;


$$
NHZ002-005-011-170700-
_____NEW HAMPSHIRE_____


CITY           SKY/WX    TMP DP  RH WIND       PRES   REMARKS
LEBANON        CLEAR     51  49  92 CALM      30.05F
6HR MIN TEMP:  49; 6HR MAX TEMP:  62;

KEENE            N/A    N/A N/A N/A MISG        N/A
MT WASHINGTON  FOG       36  36 100 NW51G62     N/A  VSB 0   WCI  19
6HR MIN TEMP:  36; 6HR MAX TEMP:  39;

PLYMOUTH       FAIR      48  46  95 CALM      30.05S
6HR MIN TEMP:  48; 6HR MAX TEMP:  64;

WHITEFIELD     CLEAR     44  40  85 NE3       30.05S
6HR MIN TEMP:  43; 6HR MAX TEMP:  59;


$$

_____REGIONAL QUEBEC LOCATIONS_____


CITY           SKY/WX    TMP DP  RH WIND       PRES   REMARKS
MONTREAL       PTCLDY    63  52  67 SW6       30.02S
QUEBEC CITY    PTCLDY    52  45  76 SW12      29.94S
SHERBROOKE     CLEAR     48  46  93 CALM      30.01S

_____REGIONAL ONTARIO LOCATIONS_____


CITY           SKY/WX    TMP DP  RH WIND       PRES   REMARKS
OTTAWA         CLEAR     54  52  94 SW3       30.06S

______KEY______
VSB  - VISIBILITY IN MILES
WCI  - WIND CHILL INDEX
HX   - HEAT INDEX
$$
NNNN




USA.gov is the U.S. government's official web portal to all federal, state and local government web resources and services.